, AK

(GMT )
Anchorage

Weather History for PANC - October, 2012

Change the Weather History Date:

Saturday, October 13, 2012

  Actual Average Record
Temperature  
Mean Temperature 32 °F 36 °F  
Max Temperature 35 °F 42 °F 61 °F (1969)
Min Temperature 28 °F 31 °F 17 °F (1973)
Degree Days  
Heating Degree Days 33    
Month to date heating degree days 293  
Since 1 July heating degree days 1358  
Cooling Degree Days 0    
Month to date cooling degree days 0  
Year to date cooling degree days 0  
Moisture  
Dew Point 24 °F    
Average Humidity 63    
Maximum Humidity 82    
Minimum Humidity 43    
Precipitation  
Precipitation T in 0.07 in 0.96 in (1991)
Month to date precipitation 2.42 1.08  
Year to date precipitation 19.14 13.36  
Snow  
Snow T in 0.20 in 8.20 in (1991)
Month to date snowfall T 2.2  
Since 1 June snowfall 0.2  
Since 1 July snowfall 0.2 2.6  
Since 1 September snowfall 2.6  
Snow Depth T in    
Sea Level Pressure  
Sea Level Pressure 29.18 in    
Wind  
Wind Speed 10 mph (North)    
Max Wind Speed 15 mph    
Max Gust Speed 23 mph    
Visibility 7 miles    
Events Fog , Snow    
T = Trace of Precipitation, MM = Missing Value Source: NWS Daily Summary

Daily Weather History Graph

Daily Weather History Graph

Search for Another Location

Airport or City:

Trip Planner

Search our weather history database for the weather conditions in past years. The results will help you decide how hot, cold, wet, or windy it might be!

Date:

Astronomy

Oct. 13, 2012 Rise Set
Actual Time 8:38 AM AKDT 6:52 PM AKDT
Civil Twilight 7:55 AM AKDT 7:35 PM AKDT
Nautical Twilight 7:05 AM AKDT 8:25 PM AKDT
Astronomical Twilight 6:14 AM AKDT 9:15 PM AKDT
Moon 6:19 AM AKDT (10/13) 5:53 PM AKDT (10/13)
Length of Visible Light 11h 40m
Length of Day
10h 13m
Waning Crescent, 4% of the Moon is Illuminated
Oct 13
Waning Crescent
Oct 15
New
Oct 21
First Quarter
Oct 29
Full
Nov 6
Last Quarter

Hourly Weather History & Observations

Time (AKDT) Temp. Windchill Dew Point Humidity Pressure Visibility Wind Dir Wind Speed Gust Speed Precip Events Conditions
12:53 AM 33.8 °F 29.6 °F 28.4 °F 81% 29.11 in 10.0 mi NE 4.6 mph - N/A   Clear
1:53 AM 30.9 °F 27.5 °F 21.9 °F 69% 29.11 in 10.0 mi NNW 3.5 mph - N/A   Clear
2:53 AM 32.0 °F 26.4 °F 17.1 °F 54% 29.10 in 10.0 mi North 5.8 mph - N/A   Clear
4:53 AM 33.1 °F 24.9 °F 14.0 °F 46% 29.10 in 10.0 mi North 10.4 mph - N/A   Clear
5:53 AM 32.0 °F 23.0 °F 15.8 °F 51% 29.09 in 10.0 mi North 11.5 mph - N/A   Clear
6:53 AM 30.9 °F 21.2 °F 17.1 °F 57% 29.10 in 10.0 mi North 12.7 mph - N/A   Partly Cloudy
7:53 AM 32.0 °F 23.0 °F 17.1 °F 54% 29.11 in 10.0 mi North 11.5 mph - N/A   Mostly Cloudy
8:53 AM 32.0 °F 22.1 °F 17.1 °F 54% 29.12 in 10.0 mi North 13.8 mph 23.0 mph N/A   Mostly Cloudy
9:53 AM 32.0 °F 24.2 °F 16.0 °F 52% 29.12 in 10.0 mi North 9.2 mph 17.3 mph N/A   Mostly Cloudy
10:53 AM 33.1 °F 23.0 °F 16.0 °F 50% 29.14 in 10.0 mi North 15.0 mph - N/A   Mostly Cloudy
11:53 AM 33.1 °F 23.0 °F 16.0 °F 50% 29.15 in 10.0 mi North 15.0 mph - N/A   Mostly Cloudy
12:53 PM 34.0 °F 27.2 °F 16.0 °F 48% 29.16 in 10.0 mi North 8.1 mph - N/A   Mostly Cloudy
1:53 PM 36.0 °F 29.0 °F 17.1 °F 46% 29.16 in 10.0 mi NNE 9.2 mph - N/A   Mostly Cloudy
2:53 PM 36.0 °F 29.6 °F 18.0 °F 48% 29.18 in 10.0 mi NNE 8.1 mph - N/A   Overcast
3:46 PM 33.8 °F 27.7 °F 21.2 °F 60% 29.19 in 6.0 mi NE 6.9 mph - 0.00 in Snow Light Snow
3:53 PM 35.1 °F 31.0 °F 21.9 °F 59% 29.20 in 5.0 mi NNE 4.6 mph - 0.00 in Snow Light Snow
4:14 PM 33.8 °F 24.8 °F 24.8 °F 70% 29.20 in 2.5 mi North 12.7 mph - 0.00 in Snow Light Snow
4:30 PM 32.0 °F 24.8 °F 26.6 °F 80% 29.20 in 1.5 mi North 8.1 mph - 0.00 in Snow Light Snow
4:43 PM 32.0 °F 24.2 °F 26.6 °F 80% 29.20 in 0.8 mi North 9.2 mph - 0.00 in Snow Light Snow
4:53 PM 32.0 °F 26.4 °F 28.0 °F 85% 29.21 in 0.8 mi North 5.8 mph - 0.01 in Snow Light Snow
5:01 PM 30.2 °F 24.3 °F 28.4 °F 93% 29.20 in 0.5 mi North 5.8 mph - 0.01 in Fog , Snow Snow
5:13 PM 30.2 °F 23.4 °F 28.4 °F 93% 29.20 in 0.5 mi North 6.9 mph - 0.02 in Fog , Snow Snow
5:53 PM 30.9 °F 23.5 °F 28.0 °F 89% 29.21 in 0.8 mi North 8.1 mph - 0.06 in Snow Light Snow
6:05 PM 30.2 °F 21.9 °F 28.4 °F 93% 29.21 in 1.0 mi North 9.2 mph - 0.00 in Snow Light Snow
6:09 PM 30.2 °F 21.9 °F 28.4 °F 93% 29.21 in 0.8 mi North 9.2 mph - 0.00 in Snow Light Snow
6:20 PM 30.2 °F 21.3 °F 28.4 °F 93% 29.21 in 1.5 mi North 10.4 mph - N/A Snow Light Snow
6:23 PM 30.2 °F 21.3 °F 28.4 °F 93% 29.21 in 2.0 mi North 10.4 mph - 0.01 in Snow Light Snow
6:26 PM 30.2 °F 21.9 °F 28.4 °F 93% 29.21 in 3.0 mi North 9.2 mph - 0.01 in Snow Light Snow
6:53 PM 30.9 °F 22.8 °F 28.0 °F 89% 29.22 in 3.0 mi North 9.2 mph - 0.01 in Snow Light Snow
7:30 PM 30.2 °F 24.3 °F 28.4 °F 93% 29.21 in 10.0 mi NNE 5.8 mph - 0.00 in   Overcast
7:53 PM 30.9 °F 22.8 °F 28.0 °F 89% 29.21 in 10.0 mi North 9.2 mph - 0.00 in   Overcast
8:00 PM 30.2 °F 21.9 °F 28.4 °F 93% 29.21 in 10.0 mi North 9.2 mph - N/A   Mostly Cloudy
8:47 PM 32.0 °F 24.8 °F 28.4 °F 87% 29.21 in 10.0 mi NNE 8.1 mph - N/A   Mostly Cloudy
8:53 PM 32.0 °F 24.2 °F 28.4 °F 87% 29.21 in 10.0 mi NNE 9.2 mph 16.1 mph N/A   Mostly Cloudy
9:43 PM 32.0 °F 26.4 °F 28.4 °F 87% 29.21 in 10.0 mi NNE 5.8 mph - N/A   Mostly Cloudy
9:53 PM 32.0 °F 23.0 °F 28.0 °F 85% 29.22 in 10.0 mi North 11.5 mph - N/A   Mostly Cloudy
10:53 PM 32.0 °F 23.0 °F 28.9 °F 88% 29.22 in 10.0 mi North 11.5 mph - N/A   Mostly Cloudy
11:09 PM 32.0 °F 23.0 °F 28.4 °F 87% 29.21 in 10.0 mi North 11.5 mph - N/A   Mostly Cloudy
11:53 PM 32.0 °F 24.8 °F 28.9 °F 88% 29.21 in 10.0 mi North 8.1 mph - N/A   Mostly Cloudy